Погода в Сутке

Россия / Ярославская область     58°20′29″N   37°32′36″E
темп.,
°C
ветер,
м/с
пор.,
м/с
влажн.,
%
обл.,
%
осадки,
мм/ч
давл.,
гПа
погр.,
м
10 августа, ср
ср1000:00+14с268251 0.0 1024172
03:00+11с23977 0.0 102458
06:00+12ссз259013 0.0 1025128
09:00+17с35621 0.0 1025600
12:00+20ссв34426 0.0 10251959
15:00+21ссв233821 0.0 10242140
18:00+21с124449 0.0 10231215
21:00+16всв2258100 0.0 102547
11 августа, чт
чт1100:00+12ссв11750 0.0 102510
03:00+11з11790 0.0 102610
06:00+12зюз11740 0.0 102615
09:00+19зюз12480 0.0 1026498
12:00+23зюз12375 0.0 10261815
15:00+24зюз22355 0.0 10241977
18:00+22юз24455 0.0 1023872
21:00+15юз256894 0.0 102473
12 августа, пт
пт1200:00+14зюз3673100 0.0 1024104
03:00+13зюз2678100 0.0 102498
06:00+13зюз3975100 0.0 1024178
09:00+19зюз485689 0.0 1024413
12:00+24зюз47435 0.0 10231341
15:00+25з46395 0.0 10221733
18:00+24зсз36475 0.0 10211222
21:00+18з26705 0.0 1022105
13 августа, сб
сб1300:00+16зсз26775 0.0 1023112
03:00+15сз128538 0.0 102315
06:00+16юз0183100 0.0 102412
09:00+22ю126277 0.0 1024436
12:00+25ююз1250100 0.0 10231428
15:00+24ю1253100 0.0 10221177
18:00+24вюв126191 0.0 1021108
21:00+19ююв117992 0.0 102213
14 августа, вс
вс1400:00+18ю1178100 0.0 102213
03:00+18ююз118132 0.0 102121
06:00+17юз228174 0.0 102130
09:00+23юз1255100 0.0 1021375
12:00+24ю2355100 0.0 1020582
15:00+26ююз3446100 0.0 10191752
18:00+23ююз355957 0.0 1019514
21:00+19ююз247299 0.0 101984